TimeEDT,TemperatureF,Dew PointF,Humidity,Sea Level PressureIn,VisibilityMPH,Wind Direction,Wind SpeedMPH,Gust SpeedMPH,PrecipitationIn,Events,Conditions,WindDirDegrees,DateUTC
12:54 AM,63.0,61.0,93,30.04,8.0,Calm,Calm,-,N/A,,Clear,0,2013-06-15 04:54:00
1:54 AM,62.1,60.1,93,30.04,10.0,Calm,Calm,-,N/A,,Clear,0,2013-06-15 05:54:00
2:54 AM,61.0,60.1,97,30.05,9.0,Calm,Calm,-,N/A,,Clear,0,2013-06-15 06:54:00
3:54 AM,60.1,59.0,96,30.04,7.0,Calm,Calm,-,N/A,,Clear,0,2013-06-15 07:54:00
4:54 AM,60.1,59.0,96,30.04,5.0,Calm,Calm,-,N/A,,Clear,0,2013-06-15 08:54:00
5:54 AM,60.1,59.0,96,30.06,6.0,Calm,Calm,-,N/A,,Clear,0,2013-06-15 09:54:00
6:54 AM,61.0,60.1,97,30.09,5.0,Calm,Calm,-,N/A,,Clear,0,2013-06-15 10:54:00
7:54 AM,68.0,63.0,84,30.11,10.0,Calm,Calm,-,N/A,,Clear,0,2013-06-15 11:54:00
8:54 AM,73.9,61.0,64,30.12,10.0,Calm,Calm,-,N/A,,Clear,0,2013-06-15 12:54:00
9:54 AM,79.0,57.0,47,30.13,10.0,Calm,Calm,-,N/A,,Clear,0,2013-06-15 13:54:00
10:54 AM,81.0,54.0,39,30.13,10.0,Calm,Calm,-,N/A,,Clear,0,2013-06-15 14:54:00
11:54 AM,84.9,55.0,36,30.12,10.0,WNW,5.8,-,N/A,,Clear,290,2013-06-15 15:54:00
12:54 PM,84.9,55.0,36,30.10,10.0,Calm,Calm,-,N/A,,Clear,0,2013-06-15 16:54:00
1:54 PM,87.1,55.0,33,30.09,10.0,WSW,4.6,-,N/A,,Clear,250,2013-06-15 17:54:00
2:54 PM,87.1,55.9,35,30.09,10.0,Variable,5.8,-,N/A,,Partly Cloudy,0,2013-06-15 18:54:00
3:54 PM,87.1,55.9,35,30.08,10.0,SSW,5.8,-,N/A,,Partly Cloudy,210,2013-06-15 19:54:00
4:54 PM,82.9,57.0,41,30.07,10.0,SSW,4.6,-,N/A,,Scattered Clouds,200,2013-06-15 20:54:00
5:54 PM,86.0,57.0,37,30.06,10.0,SSW,5.8,-,N/A,,Clear,200,2013-06-15 21:54:00
6:54 PM,82.9,59.0,44,30.07,10.0,South,8.1,16.1,N/A,,Clear,190,2013-06-15 22:54:00
7:54 PM,78.1,55.0,45,30.08,10.0,SSW,6.9,-,N/A,,Clear,200,2013-06-15 23:54:00
8:54 PM,73.9,54.0,50,30.08,10.0,South,4.6,-,N/A,,Clear,190,2013-06-16 00:54:00
9:54 PM,71.1,54.0,55,30.09,10.0,South,3.5,-,N/A,,Clear,180,2013-06-16 01:54:00
10:54 PM,69.1,55.0,61,30.10,10.0,SSW,4.6,-,N/A,,Clear,200,2013-06-16 02:54:00
11:54 PM,69.1,57.0,65,30.11,10.0,SSW,5.8,-,N/A,,Clear,210,2013-06-16 03:54:00